RH
86 81 80 79 74 73 74 75 76 75 74 71 70 80 82 80 82 83 81 76 76 81 83 86 87 85 79 75 75 72 71 69 67 78 76 60 59 61 59 56 57 66 68 64 61 57 53 50 47 44 41 42 39 34 28 24 24 22 20 21 21 20 19 19 21 22 22 23 24 24 22 19 16 14 14 15 17 22 27 31 32 32 32 32 30 28 28 27 23 19 16 14 14 13 15 17 20
85 80 78 75 71 72 71 72 78 83 77 68 69 77 78 75 80 83 81 81 81 82 83 84 88 86 80 74 72 67 66 63 57 59 54 48 54 56 57 56 54 59 62 57 53 50 47 45 40 36 36 38 35 32 27 22 23 22 22 22 21 20 19 20 21 23 24 25 26 27 25 23 20 17 15 14 14 16 21 27 31 31 31 32 31 29 27 27 25 21 18 16 16 17 18 21 24
82 77 75 72 70 67 65 67 71 82 79 66 69 73 73 75 78 80 81 84 84 84 84 84 86 83 79 75 72 67 61 55 49 48 45 44 46 49 50 51 53 53 53 51 47 43 41 39 34 30 33 35 30 27 25 22 23 22 23 22 21 20 19 21 22 24 25 26 28 28 28 26 24 21 18 15 14 14 16 21 27 30 31 31 31 31 29 27 27 25 22 19 19 20 22 25 27
82 78 76 72 69 64 62 61 59 71 76 69 70 70 72 77 80 82 82 85 85 87 87 84 82 79 79 76 70 66 60 54 51 48 46 42 38 38 39 42 47 49 49 47 43 39 36 33 29 28 31 31 25 23 23 23 23 22 22 22 21 20 20 21 22 24 25 27 28 29 30 30 29 26 23 19 17 16 16 17 21 27 30 29 28 30 30 29 29 29 27 24 23 23 26 28 28
80 79 79 76 72 68 63 59 57 63 68 68 71 71 73 75 79 82 81 83 82 84 87 85 81 78 76 73 69 66 63 59 54 50 45 40 35 31 31 34 38 42 44 42 40 37 33 29 26 25 24 24 23 22 21 22 22 21 21 22 21 20 19 20 21 24 26 27 28 29 31 31 31 30 28 25 23 21 20 18 18 21 25 28 29 29 31 31 32 31 30 28 26 26 27 28 27
75 74 75 75 73 72 64 60 61 60 61 64 68 71 72 72 73 75 75 76 76 76 81 84 78 74 71 68 70 67 66 63 58 51 44 38 33 29 28 29 31 35 37 37 38 34 30 27 24 23 21 22 22 20 20 20 20 20 21 21 20 19 19 20 22 25 27 28 28 30 30 31 31 31 30 29 29 29 27 25 23 21 21 23 27 31 32 32 32 33 32 31 30 29 28 28 28
68 67 68 67 66 66 63 65 68 63 60 62 64 68 70 70 70 70 71 69 70 70 74 77 74 73 69 64 68 68 68 67 60 52 45 37 31 29 27 26 28 30 31 32 32 31 28 25 23 21 20 19 19 19 19 20 19 20 20 20 19 19 19 21 25 29 30 30 31 32 33 34 33 32 31 30 31 32 32 32 31 29 27 25 24 28 32 32 31 31 32 32 32 31 30 30 32
59 59 58 58 57 55 59 65 68 66 63 61 60 63 66 66 67 68 68 65 66 65 66 68 69 71 66 62 63 62 66 67 63 54 44 36 29 27 25 25 26 27 29 27 27 28 25 23 22 19 18 18 18 18 18 19 19 19 19 19 19 19 21 25 30 33 34 34 34 36 39 39 37 36 34 33 34 36 38 38 37 34 33 31 26 24 26 29 29 29 30 31 32 31 30 30 32
52 51 49 53 58 54 54 58 61 64 63 61 58 56 59 60 61 62 61 59 57 55 57 58 61 64 61 60 58 54 59 61 62 55 42 34 27 24 24 24 24 25 26 24 24 25 24 22 20 17 18 18 17 18 18 19 19 19 18 19 19 20 24 29 33 36 38 38 38 40 43 42 40 40 39 38 39 41 44 44 42 38 36 34 32 28 24 23 24 25 26 28 29 29 29 29 30
59 54 48 52 65 62 52 55 58 58 58 57 56 53 53 55 56 57 56 54 51 49 49 49 52 54 53 54 52 49 51 54 56 50 40 33 27 24 24 22 22 22 22 20 20 22 23 20 16 16 16 16 17 18 19 19 19 18 18 20 21 23 27 31 35 39 42 42 43 45 46 46 44 44 45 45 43 43 44 43 42 40 38 36 35 34 30 26 23 23 24 25 25 25 26 26 26
68 63 57 52 68 73 55 54 54 49 50 48 49 51 51 53 52 52 50 49 48 46 45 46 47 47 45 45 47 44 43 49 51 44 38 31 27 25 23 21 18 18 19 16 17 21 21 17 14 13 14 15 17 18 19 20 19 19 20 22 23 25 29 32 36 39 42 43 45 47 48 48 46 46 46 47 45 42 41 41 40 39 39 38 37 38 36 34 30 29 28 27 26 26 25 25 25
73 70 64 51 65 78 54 47 52 47 46 43 43 44 46 49 49 49 45 43 43 43 43 45 45 44 42 41 42 38 37 45 45 42 38 32 28 25 22 19 16 14 16 14 16 21 19 16 14 12 13 15 17 19 19 20 20 21 22 23 25 27 29 31 34 36 39 41 43 45 46 45 44 44 44 44 44 43 43 43 43 41 38 37 37 38 38 37 35 34 33 32 30 29 28 28 28
78 72 65 51 57 73 59 47 50 50 48 46 46 42 39 39 43 45 43 40 38 40 40 42 43 42 43 42 41 36 34 37 37 38 37 36 32 25 21 18 15 12 13 14 18 20 16 13 12 11 14 16 18 19 19 20 22 23 24 24 26 27 28 29 30 32 34 36 38 39 40 39 38 39 39 40 40 42 44 44 44 42 40 39 37 37 37 35 34 33 32 31 30 32 33 34 33
80 74 67 57 51 62 67 58 49 51 50 48 49 45 38 34 39 43 42 43 40 41 40 40 39 38 40 38 42 40 34 33 32 33 33 35 33 25 21 18 14 12 11 14 20 18 13 11 11 12 14 16 17 18 19 21 23 24 25 25 26 27 27 28 28 29 30 30 30 30 29 28 27 27 27 28 30 34 38 41 41 40 39 38 36 34 33 33 34 35 35 36 38 40 41 43 41
82 78 72 63 54 55 65 65 51 52 52 50 53 49 45 39 41 46 44 45 45 43 42 41 38 42 44 35 38 41 37 35 32 30 27 28 28 24 21 18 14 12 12 14 18 17 14 13 11 13 15 16 16 17 19 21 23 24 24 24 23 24 23 24 24 23 21 20 19 17 15 14 14 15 17 20 24 28 31 35 38 38 38 37 37 36 36 36 36 36 36 36 35 32 33 37 39
83 82 78 68 62 58 60 61 48 50 53 53 58 55 55 46 43 51 47 47 47 45 46 44 41 46 45 34 35 37 36 37 34 29 25 23 23 22 20 17 14 13 14 13 14 16 14 13 12 14 15 15 15 15 17 18 20 20 19 19 17 17 17 16 15 13 11 9 9 8 7 7 8 12 17 22 26 29 32 36 38 39 39 38 35 31 28 24 22 22 23 21 17 16 19 22 23
82 82 81 73 70 62 59 58 45 47 46 46 56 57 61 50 40 45 38 36 40 43 47 48 49 50 48 44 38 33 34 37 35 29 23 22 20 20 19 16 14 14 15 11 11 13 12 13 13 15 15 13 13 13 14 14 14 13 12 12 11 10 9 9 7 7 6 6 6 6 6 6 7 10 14 18 21 24 26 26 26 25 24 20 16 12 11 10 10 12 12 12 10 10 12 12 11
79 80 79 76 74 65 60 56 46 45 36 33 44 50 63 55 38 30 23 28 32 36 42 46 50 49 51 54 47 39 36 35 35 31 25 22 19 18 18 16 13 14 15 12 11 12 12 13 14 15 14 12 11 10 10 9 9 8 8 7 7 6 6 6 6 7 7 7 7 6 7 8 8 8 8 10 12 12 12 11 11 10 9 8 8 8 10 11 12 11 9 10 10 10 9 9 12
77 78 78 75 73 70 66 59 49 44 34 28 30 37 55 57 40 24 22 29 26 26 28 29 32 29 36 49 54 51 45 39 36 34 29 25 20 18 18 16 14 14 14 12 12 14 14 14 14 14 12 10 9 8 8 8 7 6 6 6 5 6 6 7 8 9 9 8 7 6 7 9 10 8 7 8 9 10 11 14 15 12 10 10 11 11 11 11 10 9 9 10 9 11 11 9 10
79 77 77 75 73 73 71 67 57 49 40 31 27 27 37 47 43 36 37 30 21 23 19 15 17 19 27 40 48 47 43 43 43 38 30 25 21 16 17 16 14 14 13 12 14 14 15 15 14 13 11 9 8 7 8 7 7 7 7 7 7 8 9 9 10 10 10 8 6 6 7 9 11 10 8 8 8 9 12 15 16 13 10 9 9 10 10 9 9 11 10 10 10 11 11 10 8
80 76 73 74 74 74 73 72 65 55 47 37 32 31 35 38 33 38 45 36 32 34 26 18 16 17 23 30 33 32 32 33 41 41 24 17 18 15 16 16 15 15 13 13 15 15 15 14 13 13 10 9 8 7 8 9 9 9 9 10 9 10 10 10 10 10 9 8 7 6 7 8 10 10 9 9 8 8 9 9 9 10 9 9 9 9 10 8 9 11 10 10 10 11 11 11 10
78 75 71 72 72 74 73 72 67 58 51 44 38 36 43 37 22 26 33 36 45 44 36 27 18 15 17 21 25 28 29 24 33 41 22 9 14 14 15 15 16 16 13 14 15 14 14 13 12 11 9 8 8 8 10 11 11 12 12 12 12 11 10 9 9 9 9 8 8 7 8 9 9 8 8 8 8 8 8 8 8 9 8 8 9 8 8 8 8 9 8 9 9 10 11 10 10
72 72 72 72 70 73 72 69 66 59 54 51 45 42 46 36 25 23 19 34 55 52 44 31 20 17 13 17 26 31 31 22 24 35 22 7 12 15 14 13 15 16 13 14 15 14 13 11 10 9 8 8 8 9 11 12 13 14 14 14 13 12 10 9 9 9 9 9 8 8 8 8 8 7 8 8 9 9 8 9 9 9 9 8 9 8 8 8 8 9 9 9 8 9 10 10 9
64 69 75 75 71 72 70 68 65 60 55 52 48 44 42 35 33 29 23 40 51 39 31 23 18 19 16 20 30 35 32 23 18 23 18 7 12 15 12 12 14 16 14 14 16 14 12 10 9 7 7 9 8 9 10 12 13 14 14 14 14 13 13 12 12 12 12 11 10 9 8 7 7 8 9 10 10 9 8 8 8 8 8 8 9 9 8 8 9 10 10 10 10 10 10 10 9
59 65 73 75 74 71 68 67 64 60 57 52 49 45 41 35 35 34 33 38 31 17 14 16 18 19 20 25 31 34 31 25 17 14 11 7 12 15 12 12 15 16 14 14 16 13 10 9 7 6 7 9 8 7 8 9 12 13 13 13 13 14 15 15 15 15 14 14 13 10 9 8 9 9 10 11 10 9 7 7 8 8 8 9 9 10 9 10 11 12 13 14 14 14 13 12 11
55 56 63 71 75 72 69 66 63 61 58 54 51 48 45 37 31 32 30 23 16 13 12 15 18 17 19 23 26 29 29 26 18 10 8 8 11 14 13 13 15 16 13 14 16 13 9 7 6 6 7 8 7 7 7 7 9 11 12 12 13 14 15 16 16 15 15 14 14 12 10 10 10 10 11 11 10 8 7 8 8 8 9 10 12 13 14 15 16 16 17 17 17 17 17 15 14
54 49 52 66 75 73 69 68 64 61 60 57 54 52 50 42 34 34 31 22 19 16 14 14 17 18 18 19 22 26 28 26 18 10 8 8 11 13 12 13 15 16 13 13 16 14 8 6 5 5 6 8 7 7 6 6 9 10 12 13 13 13 14 15 15 15 14 14 14 13 12 12 12 12 11 10 10 9 9 9 9 11 13 14 16 18 18 18 18 18 18 18 18 17 17 15 14
56 47 43 59 73 75 72 73 68 62 64 62 59 57 53 47 41 42 37 30 28 23 18 16 16 18 17 19 22 25 29 28 21 11 7 8 10 13 13 13 16 15 13 13 15 15 9 6 5 5 6 7 7 8 7 7 8 10 12 13 13 13 13 14 14 14 13 13 13 15 15 14 14 13 11 10 11 10 10 11 13 15 16 17 19 20 20 20 19 18 17 16 15 14 13 12 11
49 41 41 50 60 71 74 74 70 65 66 64 63 62 57 52 46 44 40 36 35 28 23 20 18 19 18 20 22 24 26 27 25 13 7 10 10 14 14 12 16 14 12 13 15 14 10 6 5 5 6 7 7 7 7 7 8 9 11 12 12 11 11 12 13 13 12 12 12 15 15 14 13 12 11 11 11 11 13 15 16 16 16 17 18 20 21 19 16 14 12 12 13 13 13 13 12
40 38 42 42 45 62 69 67 67 66 65 60 62 64 60 58 50 46 44 42 41 33 29 29 24 19 17 19 21 22 21 20 23 15 8 11 10 13 15 13 15 14 13 14 14 14 11 7 5 5 6 7 8 7 7 6 7 8 9 10 9 8 9 11 11 10 10 10 11 13 13 12 11 10 10 11 12 13 15 15 14 14 15 15 15 17 16 13 11 13 15 18 21 23 24 24 24
36 36 38 37 37 51 58 57 60 64 62 53 59 65 63 66 59 51 47 46 48 43 43 44 35 23 17 18 19 20 18 11 15 17 10 10 11 12 15 14 15 15 14 14 13 13 11 8 6 6 6 7 9 8 7 6 6 7 7 8 8 7 7 9 10 9 8 8 9 10 9 9 9 10 11 13 13 14 14 12 12 13 13 13 13 13 12 12 15 20 24 27 28 29 30 32 33
31 30 32 36 37 44 49 52 56 60 55 46 55 63 65 72 65 53 50 53 57 53 52 54 50 37 21 16 17 18 18 7 8 16 12 10 12 13 14 14 15 15 14 13 12 11 10 9 7 6 6 7 8 9 8 5 5 5 6 7 7 7 7 8 10 8 7 7 7 7 7 8 9 11 12 13 13 13 13 13 13 12 11 12 12 12 14 18 23 26 27 27 27 29 31 34 37
24 25 33 37 37 45 51 51 51 53 51 44 52 62 66 72 64 54 56 63 69 64 59 61 64 60 40 24 18 18 19 11 7 12 13 12 13 12 12 14 14 14 14 13 11 10 10 9 8 8 8 7 7 8 8 6 5 5 6 7 7 7 6 8 9 8 7 6 6 6 8 10 11 12 13 13 13 13 14 14 13 11 12 13 13 16 19 22 25 25 25 26 27 29 31 35 37
18 22 29 31 32 44 54 54 50 51 49 43 51 67 70 67 59 55 62 70 77 75 68 65 67 69 56 34 21 19 21 17 10 10 14 14 14 12 11 14 14 12 13 13 10 9 9 9 10 10 9 9 7 7 8 6 5 5 5 6 6 6 6 8 9 8 7 6 6 8 9 11 12 12 12 12 12 12 13 13 13 12 14 16 18 20 22 23 24 24 25 26 28 29 30 33 35
17 19 23 27 29 40 53 55 48 47 46 39 51 70 72 67 61 57 62 71 78 78 70 64 61 57 48 35 25 21 22 21 13 10 14 16 16 13 9 13 14 11 12 12 11 9 8 9 10 11 10 9 9 8 8 7 5 5 5 5 5 5 5 7 9 9 8 7 8 9 10 11 11 11 10 10 10 11 11 12 13 14 17 20 22 23 23 23 22 24 25 27 29 30 29 31 33
14 17 21 27 31 40 55 57 44 43 44 37 46 65 71 71 65 57 60 70 77 78 74 70 64 52 41 36 32 28 26 25 17 11 14 15 16 13 9 13 13 10 11 11 10 9 8 8 9 10 10 9 8 6 6 6 6 5 5 5 4 4 4 7 9 9 9 8 9 10 10 10 10 10 10 10 10 10 10 11 14 18 21 23 23 22 22 22 22 24 26 27 29 28 29 31 29
10 14 19 27 32 36 52 58 46 43 44 38 42 57 69 72 67 60 60 69 75 77 81 81 72 56 44 44 49 44 32 25 20 13 14 15 14 13 10 12 12 9 9 9 8 8 7 6 6 7 8 7 6 4 4 5 5 4 4 4 4 4 4 6 8 10 9 9 9 10 10 10 10 10 11 10 11 11 10 13 17 20 22 22 21 21 21 22 23 25 26 27 28 26 28 28 22
7 12 19 29 30 30 45 52 45 47 46 38 38 49 66 74 71 66 61 66 75 78 82 85 78 63 48 47 58 57 40 28 22 14 12 15 12 11 10 11 12 9 8 7 6 6 5 4 4 4 5 5 4 3 3 3 3 3 3 4 4 4 4 5 7 9 9 9 9 9 10 10 11 11 11 12 12 11 13 15 19 21 21 21 21 22 22 23 24 24 25 26 25 26 27 24 18
5 8 14 19 21 27 41 43 41 52 51 39 37 41 57 71 71 68 64 66 75 76 78 83 81 70 56 51 59 63 51 35 26 16 12 14 10 8 9 10 11 10 8 6 4 4 3 3 3 3 4 4 3 3 3 3 3 3 3 4 4 4 4 5 6 8 9 9 9 9 10 10 11 12 13 13 12 12 15 18 20 22 22 22 23 22 22 23 24 22 23 24 23 26 26 21 17
3 4 5 6 12 22 34 41 43 53 53 43 39 35 45 65 68 66 66 69 74 73 74 80 79 73 65 53 49 53 45 32 26 18 11 12 10 7 8 9 10 9 8 5 4 3 3 3 3 3 3 4 3 3 3 3 3 3 4 4 4 4 5 5 6 7 9 9 8 8 9 10 10 12 14 15 13 12 16 20 22 23 23 24 24 22 22 23 23 22 21 21 21 25 24 18 17
2 3 2 2 8 13 25 40 41 47 52 47 42 34 37 57 66 66 68 71 73 73 73 75 75 77 71 52 41 39 30 23 24 19 11 11 10 7 7 8 9 9 8 7 5 4 3 3 3 3 3 3 3 3 3 3 3 4 4 4 4 5 5 6 6 7 9 9 8 9 9 9 10 12 15 16 14 13 16 20 22 23 24 24 23 22 22 23 23 21 19 19 22 23 20 17 16
2 3 3 2 5 5 13 26 30 40 54 57 53 40 31 46 64 68 67 67 69 71 72 70 71 74 70 59 50 39 28 23 21 17 11 10 10 8 7 7 8 8 7 7 6 5 4 3 3 3 3 3 3 3 3 3 4 4 4 4 5 5 5 6 6 7 8 8 9 9 9 9 9 11 14 17 17 15 16 20 22 24 25 24 23 22 21 22 23 20 18 20 22 20 17 16 15
3 2 3 3 3 3 5 12 21 34 52 61 54 38 27 35 56 64 60 61 67 68 67 66 68 68 67 70 64 47 34 26 22 20 13 9 9 8 6 7 7 8 7 7 6 5 3 3 3 3 3 3 3 3 3 4 4 4 4 5 4 5 5 5 6 7 7 8 8 8 8 8 8 10 13 17 19 18 18 20 21 23 25 24 24 23 21 23 22 18 18 20 19 17 16 16 14
3 2 3 3 2 4 3 6 14 23 42 54 43 34 30 24 38 55 53 56 64 64 62 62 64 64 68 78 75 61 46 30 23 22 14 10 9 7 6 6 7 7 6 6 6 5 4 3 3 3 3 3 3 3 4 4 4 4 4 4 4 5 5 5 6 6 7 8 8 8 8 8 8 11 16 20 22 23 22 22 21 22 24 24 24 23 22 23 22 19 19 19 18 18 18 17 16
3 2 3 3 2 3 3 4 9 14 28 38 33 35 31 13 22 45 50 52 57 57 57 60 60 61 69 78 78 72 59 39 26 21 16 13 9 6 6 5 6 7 5 5 5 4 4 3 3 3 2 3 3 3 4 4 4 4 4 4 4 4 5 5 5 6 6 7 7 8 8 8 8 12 20 25 27 27 26 24 23 22 22 22 23 23 22 23 22 20 20 20 19 20 20 19 18
3 2 2 3 2 3 3 2 5 10 14 18 21 26 19 4 12 35 43 45 51 52 55 59 58 58 67 77 81 79 67 51 36 24 17 13 8 5 5 5 6 6 6 5 4 3 3 3 3 3 2 3 3 3 3 4 4 4 4 4 4 4 4 5 5 5 6 6 7 7 7 8 8 12 20 26 28 28 27 25 24 22 21 21 21 22 22 23 22 20 21 21 19 22 24 21 19
2 2 2 3 3 2 3 3 3 6 6 5 9 15 13 3 6 23 32 34 44 52 56 59 56 55 64 73 83 82 69 58 50 36 22 13 8 6 4 5 6 6 6 4 3 3 2 2 2 2 3 2 3 3 3 3 3 4 4 4 4 4 4 4 5 5 5 6 6 6 7 7 8 10 15 23 27 27 26 26 26 24 21 19 19 21 21 22 22 20 22 22 20 25 26 21 18
3 3 2 2 3 2 2 3 3 2 3 2 4 11 13 5 3 16 23 25 39 52 56 58 55 55 60 69 81 81 67 61 56 43 29 16 8 5 3 4 5 5 6 4 4 3 2 3 3 2 3 3 3 3 3 3 3 3 4 3 3 3 3 4 4 5 5 5 5 6 7 7 8 9 11 17 23 25 26 27 27 26 24 20 18 18 20 22 21 20 22 22 21 27 28 23 19
3 3 3 2 2 3 2 2 3 2 2 2 2 6 8 3 3 13 18 20 34 49 55 58 58 56 57 64 76 77 69 64 57 46 35 20 9 6 5 4 3 4 4 4 4 3 3 3 2 3 3 3 3 3 3 3 3 3 3 3 3 3 3 3 4 4 5 5 5 5 6 6 7 8 9 12 16 23 28 28 28 28 27 22 19 18 19 21 20 19 21 22 22 28 29 25 21
4 3 3 3 2 2 2 2 2 2 2 2 2 3 3 1 3 10 16 20 29 45 55 59 61 59 57 64 73 73 70 66 59 49 40 27 15 10 7 3 2 3 3 3 3 2 3 3 2 3 2 2 3 2 3 3 3 3 3 3 3 3 3 3 3 4 4 4 4 5 5 6 7 7 8 9 11 19 27 29 28 30 30 26 22 19 19 21 20 19 21 21 23 28 29 27 25
5 4 3 3 3 2 2 2 2 2 2 2 2 2 2 2 2 4 10 18 28 44 58 62 63 62 62 66 68 66 68 69 64 55 44 33 22 14 11 6 2 3 2 2 2 2 2 2 2 2 2 2 3 2 3 3 3 3 3 3 3 3 4 3 3 4 4 4 4 5 5 5 6 7 7 8 8 12 21 27 28 30 32 31 26 22 19 20 21 18 20 21 23 27 28 27 27
5 5 4 4 3 3 3 2 2 2 2 2 2 2 2 2 3 3 8 17 24 37 56 63 64 65 67 65 60 60 67 71 67 59 48 38 27 17 12 8 4 5 4 3 3 2 2 2 2 3 2 3 3 3 3 3 3 3 3 4 3 3 4 4 4 4 4 4 4 4 5 5 6 6 6 8 7 8 14 23 29 31 33 34 31 27 22 21 21 19 20 21 22 27 30 30 28
8 6 6 5 4 3 3 3 2 2 2 2 2 2 2 2 2 3 8 17 21 33 55 66 66 68 68 64 61 60 65 70 69 65 55 45 34 23 15 11 9 8 6 6 7 6 4 3 3 3 3 3 3 4 4 3 4 4 4 5 5 5 5 4 5 5 4 5 4 5 5 5 6 6 7 7 8 8 10 17 28 33 35 35 35 32 26 23 22 20 20 21 22 26 31 33 29
10 8 7 5 4 4 3 3 3 3 2 3 2 2 2 2 2 3 7 15 21 30 47 58 62 68 67 64 64 62 66 70 71 68 60 49 39 27 18 14 13 12 11 10 11 11 9 5 4 4 4 4 4 4 5 5 6 8 9 10 11 11 11 10 9 9 9 7 6 5 5 5 6 5 7 8 8 9 9 14 25 34 37 37 37 36 32 27 24 22 21 21 22 25 32 36 31
11 10 8 6 5 4 4 4 3 3 3 3 3 2 2 2 2 4 6 12 20 26 33 43 55 65 66 64 65 65 69 70 68 68 64 53 42 33 26 21 18 17 15 13 13 12 10 7 5 4 4 4 4 4 5 7 11 15 19 21 22 22 22 22 21 21 21 18 13 10 7 6 6 6 7 8 8 9 11 17 25 33 38 40 40 40 38 32 27 24 22 22 23 26 33 38 34
12 11 9 8 7 5 4 4 3 3 3 3 3 3 3 2 2 3 3 8 17 25 31 39 52 63 65 65 65 67 69 68 68 71 68 58 50 46 45 42 38 33 28 23 18 13 12 11 9 8 7 6 6 7 9 13 18 23 27 31 34 35 35 34 34 33 32 30 28 24 19 13 9 8 7 8 9 10 14 23 32 36 39 42 43 44 43 38 31 26 23 23 24 27 33 40 38
12 11 10 8 7 6 5 4 4 4 3 3 3 3 3 3 2 2 2 4 9 16 25 35 47 59 64 65 66 66 67 68 70 73 69 62 61 62 62 58 55 51 47 40 28 18 15 14 13 14 14 13 14 15 18 21 24 27 33 38 42 43 43 42 41 40 39 39 39 38 36 32 25 18 11 8 9 10 16 29 39 43 43 45 46 47 46 43 37 29 24 23 24 27 34 41 41
13 12 12 10 8 7 6 4 4 4 4 4 3 3 3 3 3 2 2 3 4 7 15 26 42 58 65 65 65 64 66 68 70 71 68 65 68 71 68 62 57 55 55 53 43 30 21 17 16 18 19 20 22 23 24 27 29 32 37 42 43 41 39 37 36 35 36 38 40 41 41 41 40 37 28 19 14 12 17 30 42 49 50 49 49 49 49 47 42 34 27 24 24 27 34 41 43
Wind_Speed
12 12 13 13 15 16 16 15 13 12 11 12 12 11 10 10 11 10 9 10 12 14 15 15 15 14 12 12 12 13 12 12 12 12 12 13 12 12 10 9 9 8 9 9 9 9 9 9 9 9 9 9 9 11 13 15 15 14 12 12 11 11 12 13 13 14 14 15 15 15 14 14 14 14 13 13 13 12 12 12 12 11 11 11 12 12 12 11 12 13 12 12 12 12 12 12 12
11 12 12 13 14 15 14 14 13 12 11 12 11 10 10 10 11 10 11 11 12 13 14 14 14 13 12 12 11 12 11 11 11 10 11 12 13 11 9 9 8 8 9 9 9 9 9 9 9 9 8 9 9 11 13 15 15 13 12 11 10 11 12 13 13 14 14 14 14 14 14 14 13 13 13 13 12 12 12 12 12 12 11 11 11 12 12 11 11 12 12 12 12 11 11 11 11
11 11 12 12 13 13 13 13 11 12 12 12 11 10 10 10 10 11 12 13 13 12 12 12 13 13 12 11 10 10 10 9 9 9 9 10 12 12 10 9 8 8 8 8 8 8 9 9 9 9 9 9 10 12 13 14 14 13 11 10 10 11 12 13 14 14 14 14 14 13 13 13 13 13 13 12 12 12 12 12 12 12 11 11 11 11 11 11 10 11 11 11 11 11 11 10 10
10 10 11 11 11 12 12 11 10 12 13 11 10 10 10 10 10 11 12 13 13 13 11 11 11 11 11 10 9 9 9 8 8 7 7 8 9 11 10 9 8 7 7 7 7 7 8 9 9 8 9 10 10 11 13 13 12 12 11 10 10 11 12 13 14 14 14 14 14 13 13 12 12 12 12 12 13 13 12 12 12 11 11 11 10 10 10 10 10 10 10 9 9 9 9 9 9
10 9 10 10 10 11 10 10 9 10 12 10 10 10 10 11 11 12 13 13 13 13 12 10 10 10 10 9 8 8 8 7 7 6 6 7 8 9 9 9 8 7 6 5 6 7 8 8 8 8 9 9 9 11 12 11 11 11 10 10 10 12 12 13 14 14 14 14 14 13 12 12 12 12 12 12 13 13 12 12 11 11 11 10 10 10 10 9 9 9 9 9 8 8 8 7 7
9 8 9 10 10 10 8 8 8 8 9 9 10 10 10 10 11 11 12 12 12 12 12 11 10 9 9 9 8 7 7 6 6 5 5 6 7 7 8 8 8 7 6 5 5 6 7 8 8 8 9 9 9 10 11 10 11 10 10 10 11 12 12 13 14 14 14 14 14 13 12 11 11 11 11 11 12 12 12 12 11 11 10 10 10 10 9 9 9 8 8 8 7 7 7 6 6
8 8 8 9 9 9 8 8 7 7 7 7 8 9 9 9 9 10 10 10 11 11 11 10 9 8 8 8 8 6 6 6 5 4 3 4 6 6 6 7 7 7 5 4 4 5 5 6 7 8 8 9 9 10 10 10 10 10 10 11 11 12 12 13 14 14 14 13 13 13 12 11 11 11 11 11 11 11 11 11 11 10 10 9 9 9 9 8 8 8 7 7 6 6 6 6 6
8 7 7 8 9 9 8 7 6 5 6 6 7 8 8 7 8 9 8 9 9 9 9 9 9 8 8 8 7 7 7 6 5 3 3 3 4 6 5 6 6 6 5 4 4 4 4 5 7 8 8 8 8 9 10 10 10 10 11 11 11 12 12 12 13 13 13 13 13 12 11 11 12 12 11 11 10 10 11 10 10 9 9 9 9 9 8 8 7 7 7 6 6 5 5 5 5
8 7 7 8 9 9 8 6 5 4 4 5 5 6 6 6 7 8 8 8 8 8 8 8 8 8 8 7 6 7 7 6 6 4 3 3 4 5 5 5 6 5 5 5 5 4 4 5 6 7 7 8 8 9 9 9 10 11 11 12 11 11 12 12 12 12 12 12 12 11 11 11 11 11 11 11 10 10 10 9 9 8 8 8 8 8 8 7 7 6 6 5 5 5 5 4 4
9 7 7 8 9 8 6 5 4 4 4 4 4 5 5 6 6 7 7 6 6 6 7 7 7 7 8 7 7 7 7 7 6 5 4 3 3 4 5 5 5 5 5 5 5 5 5 5 6 7 7 8 8 9 9 9 10 11 12 12 11 11 11 12 12 12 12 11 11 11 10 10 10 10 9 9 9 8 7 7 7 7 7 7 7 8 8 8 7 6 6 5 5 5 5 4 4
9 8 7 7 8 7 5 5 4 4 5 5 5 5 6 6 6 6 6 5 5 5 6 6 6 6 6 7 7 7 8 8 7 6 5 4 4 4 4 5 5 6 5 5 5 6 6 6 7 7 8 8 9 9 9 9 10 11 11 11 11 11 11 11 12 11 11 11 10 10 10 10 9 8 8 8 7 7 6 6 6 7 7 7 7 8 8 8 7 7 6 6 5 5 5 4 4
8 8 7 8 9 8 6 6 6 6 5 5 5 6 6 6 6 5 5 6 6 6 7 7 6 5 4 5 6 7 8 8 8 7 5 4 3 4 4 4 5 5 5 5 5 6 7 7 8 8 9 9 9 9 9 10 10 11 11 11 11 11 11 12 12 11 11 11 10 10 10 9 9 8 7 7 7 7 7 7 7 8 8 8 8 8 8 8 7 7 6 5 5 5 5 4 3
9 9 9 9 10 9 7 6 6 6 6 6 6 7 7 6 6 6 6 6 7 7 7 8 8 7 6 4 4 5 6 8 8 8 6 4 3 3 4 4 4 5 6 5 5 6 6 8 9 9 10 10 10 10 10 10 10 11 11 11 11 11 12 12 12 12 11 11 11 10 10 9 9 9 9 8 8 8 8 8 8 8 9 9 8 8 7 7 6 6 6 5 5 4 4 3 3
10 10 9 9 9 10 8 6 7 6 6 7 7 8 7 7 7 7 7 7 7 7 7 8 9 9 8 7 6 3 3 5 7 7 7 6 4 3 4 4 4 5 6 6 5 6 6 7 9 9 10 10 10 10 10 10 11 11 11 11 11 12 12 13 13 13 12 12 12 11 11 11 10 10 10 10 9 9 9 10 10 10 10 9 9 8 7 7 7 6 6 5 6 5 5 5 4
11 11 11 9 8 9 8 7 8 7 7 8 8 8 8 7 8 8 8 7 7 7 7 8 8 8 8 8 8 6 3 4 5 6 7 6 5 4 3 4 4 4 6 7 6 6 7 7 8 9 10 10 10 10 11 11 11 11 11 12 12 12 13 13 14 14 13 13 13 12 12 12 12 12 12 12 11 11 11 11 11 11 11 11 10 10 10 9 9 8 7 7 8 8 7 7 7
12 12 12 10 8 9 8 7 8 8 8 9 9 9 7 7 8 8 9 8 8 7 7 7 7 6 5 6 8 9 6 4 4 6 6 6 6 4 4 4 4 5 6 7 7 8 8 8 9 10 10 10 10 11 11 11 12 12 12 12 13 13 14 14 14 14 14 14 14 13 13 13 13 13 13 14 13 13 13 13 13 13 13 13 12 12 12 12 11 11 10 10 10 10 10 9 9
13 13 12 11 9 9 9 8 10 9 9 10 10 9 7 7 8 9 9 9 9 9 8 8 7 5 5 5 6 8 7 6 4 5 6 5 5 5 4 4 5 5 6 8 9 9 10 9 10 10 10 11 11 11 12 12 12 13 13 13 14 14 14 15 15 15 14 14 14 14 14 14 14 14 15 15 15 15 15 15 15 15 15 15 15 15 14 14 13 13 12 11 11 11 11 11 10
13 13 13 12 11 11 10 10 10 9 10 11 10 9 7 7 8 8 9 8 9 9 9 9 8 7 6 4 5 5 6 6 5 5 5 6 6 5 5 4 5 6 7 8 10 10 10 10 10 10 11 11 11 12 12 12 12 13 14 14 15 15 15 15 15 15 15 15 15 14 14 15 15 15 16 16 16 16 16 16 15 16 16 15 15 15 14 14 13 12 12 11 10 10 10 10 10
14 14 13 13 12 11 11 11 10 9 10 10 10 10 9 8 9 9 8 8 9 9 9 9 9 8 7 6 5 5 4 5 6 6 6 6 7 6 6 5 5 6 8 9 10 11 11 10 11 11 11 11 12 12 13 13 13 13 14 15 15 15 15 15 15 15 14 15 15 15 15 15 15 15 16 16 16 16 15 15 15 15 14 14 14 13 13 13 12 12 11 11 10 10 10 10 9
15 15 14 14 13 12 12 12 11 10 10 9 9 10 9 9 9 9 9 9 9 9 9 9 8 8 8 8 7 5 4 4 5 7 7 7 8 8 8 6 6 7 8 10 11 12 11 11 11 11 11 12 13 13 13 13 14 14 14 15 15 15 15 15 14 14 14 14 15 15 15 14 14 15 15 15 14 14 14 14 13 13 13 13 12 12 13 12 12 12 11 10 10 10 10 9 9
17 17 16 15 14 13 13 13 12 11 10 9 8 8 8 8 9 10 10 10 9 9 9 8 8 7 7 8 8 6 4 3 5 6 7 7 8 10 10 8 7 7 9 11 11 12 12 11 12 12 12 13 14 14 14 14 15 15 15 15 15 15 15 15 14 14 14 14 14 14 14 14 14 14 14 13 13 13 13 12 12 12 12 12 11 12 12 11 11 11 11 10 10 10 9 9 9
18 18 17 15 15 14 14 13 12 11 10 9 8 8 7 8 9 10 11 11 9 9 9 8 8 7 7 6 6 6 5 4 4 5 5 6 8 10 11 10 9 8 9 11 11 12 12 12 13 14 14 14 14 15 15 15 15 15 15 15 15 15 15 15 15 14 14 13 13 13 13 13 13 13 13 13 12 12 12 12 12 11 11 11 11 11 11 10 10 10 10 9 9 9 9 9 8
20 19 18 17 16 15 14 12 12 10 9 9 8 7 6 7 8 8 11 11 9 10 9 9 8 6 6 6 5 5 5 4 5 6 6 7 9 11 12 12 12 10 11 12 12 11 12 12 14 15 15 15 15 15 15 15 15 15 15 15 15 15 14 14 14 14 13 13 12 12 12 12 13 13 12 12 12 12 12 11 11 11 11 11 10 10 10 9 9 9 9 9 9 9 9 9 8
20 19 18 18 17 16 14 12 11 10 9 9 8 7 6 6 7 7 9 8 8 11 10 9 8 6 6 6 6 4 4 4 5 6 7 8 10 11 12 13 13 12 12 12 12 11 12 13 15 16 16 16 16 16 16 16 16 15 15 15 15 14 14 13 13 13 12 12 12 11 11 12 12 12 12 12 12 12 12 12 11 11 11 11 10 9 9 8 8 8 8 8 8 9 8 8 7
20 19 19 20 19 17 14 12 11 11 10 9 7 6 6 6 7 7 7 7 7 9 9 9 9 7 6 6 6 4 3 3 4 6 8 9 12 12 12 12 13 14 14 14 13 12 12 14 16 17 18 18 17 17 17 16 16 16 15 14 14 14 13 13 12 12 12 11 11 11 11 11 12 12 12 12 12 11 12 12 11 11 10 10 9 8 8 7 7 7 7 7 7 7 7 6 6
21 20 19 20 20 17 15 13 11 11 10 8 6 5 6 6 7 6 6 7 7 7 7 8 8 8 7 6 5 5 3 2 3 7 9 10 12 13 12 13 14 15 15 15 13 12 13 14 17 18 18 18 17 17 17 16 16 15 14 14 13 13 12 12 12 11 11 11 11 11 11 11 12 11 11 11 11 11 11 11 10 10 9 8 8 7 7 6 6 6 6 6 6 6 6 5 5
22 21 19 20 21 19 17 14 11 10 9 7 5 5 6 7 7 7 6 6 6 5 5 7 8 8 8 6 5 4 4 2 1 6 10 12 13 14 14 14 15 15 16 16 14 13 13 15 17 18 18 18 17 17 16 16 15 15 14 13 13 12 12 12 12 11 11 11 11 11 11 11 11 11 11 11 11 10 10 9 9 9 8 7 7 6 6 5 4 4 5 5 6 6 6 6 6
24 23 20 20 22 21 19 16 13 11 9 6 4 6 7 8 8 8 8 7 6 5 5 5 6 7 8 7 5 4 4 4 3 4 10 12 13 14 15 15 15 16 17 17 15 14 14 16 18 18 18 18 17 17 16 16 15 14 14 13 12 12 11 11 11 11 11 11 12 11 11 11 11 10 10 10 10 9 9 8 8 8 7 7 6 5 4 3 3 3 3 4 5 5 6 6 7
25 24 21 21 22 22 21 19 17 15 11 8 6 8 10 10 10 9 9 9 8 8 7 5 5 6 8 8 6 5 5 5 4 4 8 11 12 13 14 15 16 17 18 18 16 15 15 16 18 18 18 18 17 16 16 16 16 15 14 13 12 12 11 11 11 11 11 11 11 11 11 11 10 10 10 9 9 9 8 8 8 7 6 6 5 4 3 2 2 2 3 4 5 5 6 6 7
26 24 23 23 22 22 22 21 20 18 16 11 9 11 12 11 12 11 11 10 10 10 9 7 6 5 6 7 7 6 5 5 4 5 9 12 13 13 13 14 16 17 18 18 17 16 16 16 18 18 18 18 17 17 16 16 16 15 14 13 12 11 11 11 11 11 11 11 11 11 11 10 10 10 10 9 9 8 8 7 6 6 5 5 4 3 2 2 3 4 5 6 7 6 7 7 7
26 25 23 23 22 22 23 22 21 19 18 15 11 13 13 10 13 14 13 12 12 12 11 9 7 5 4 5 7 6 5 4 5 7 10 12 13 13 13 14 15 17 18 18 18 18 17 17 18 19 18 18 17 17 16 16 16 15 14 13 12 11 12 12 11 11 11 11 11 11 11 10 10 10 10 9 8 7 7 6 5 5 4 3 3 2 3 4 5 5 6 7 7 7 7 7 8
26 24 22 22 21 22 23 21 21 19 18 16 13 15 15 10 14 16 14 14 13 13 12 10 9 7 5 4 5 6 5 4 5 8 11 13 13 13 15 15 15 17 18 19 18 18 18 18 18 18 18 18 17 17 16 16 16 15 14 13 13 12 12 12 12 12 11 11 11 11 11 11 11 10 10 9 7 6 6 5 4 4 4 3 3 3 4 5 5 5 6 7 8 8 8 8 8
26 23 22 23 23 23 23 22 22 20 19 16 14 18 19 13 16 17 15 15 14 13 13 12 11 9 6 5 4 5 5 4 5 8 11 13 14 14 15 16 17 18 19 19 19 19 19 19 19 18 18 17 17 16 16 16 15 15 14 14 13 13 13 13 12 12 12 12 12 11 11 11 10 9 8 7 6 5 5 4 4 4 4 3 4 4 4 4 5 5 6 7 8 8 8 8 8
25 23 23 23 22 24 25 24 23 21 20 17 15 21 22 18 19 19 18 17 15 15 14 13 13 11 9 7 5 4 4 4 4 7 11 13 14 14 16 17 18 19 19 19 19 19 20 19 19 18 18 17 16 15 15 15 15 15 14 14 13 13 13 13 13 13 12 12 12 11 11 10 9 8 7 6 5 4 4 4 4 4 4 4 4 3 4 4 5 5 6 7 8 9 9 8 9
26 25 24 22 20 22 25 26 24 22 20 17 17 23 24 21 22 21 21 20 17 16 15 14 14 13 12 9 7 5 4 4 4 7 11 13 13 13 15 17 18 19 19 19 19 19 19 19 19 18 17 16 15 15 15 15 15 15 14 14 14 14 14 13 13 13 12 12 12 11 10 9 8 7 6 5 5 4 4 4 4 4 4 4 3 3 3 4 5 5 6 8 9 9 9 9 9
27 25 25 23 22 22 26 28 26 22 21 18 18 24 26 25 25 24 23 21 19 17 14 14 14 14 13 12 9 7 5 5 4 7 11 13 13 13 15 17 18 19 19 19 19 18 18 17 17 17 16 15 15 14 14 15 16 16 15 15 14 14 13 13 13 13 13 12 12 11 10 9 8 7 6 5 5 5 5 5 5 4 4 3 2 2 3 3 5 6 8 9 9 10 10 9 10
28 26 25 24 25 24 26 30 28 23 23 21 20 25 29 28 27 26 24 23 21 18 16 14 14 15 15 14 12 9 7 5 4 6 11 14 14 14 15 16 18 19 19 19 18 17 17 17 17 16 16 15 15 15 15 16 17 16 16 15 14 14 14 14 14 14 13 13 12 11 10 9 8 7 6 5 5 5 5 5 4 4 3 2 1 2 3 4 5 7 8 9 10 10 9 9 9
28 27 26 28 28 25 27 32 28 24 26 23 21 25 28 29 28 28 27 25 23 21 19 16 16 16 16 16 14 12 9 7 5 6 10 15 15 15 16 16 17 18 19 18 18 18 18 17 17 17 16 16 16 16 17 17 16 15 15 14 14 14 14 14 14 14 13 13 12 11 10 9 8 6 5 5 5 5 5 4 3 3 2 1 2 3 4 5 6 7 8 9 10 9 8 8 9
30 30 31 30 27 26 30 32 27 26 29 26 23 25 29 30 31 31 29 26 25 24 22 19 18 17 17 18 17 15 13 10 7 6 9 14 16 16 17 17 17 18 19 18 18 18 18 18 18 17 17 17 17 17 17 16 15 14 14 13 14 13 13 13 14 14 13 13 12 11 10 8 7 6 4 4 4 4 4 3 2 1 0 1 2 4 4 5 6 8 8 9 9 8 7 8 9
32 32 31 27 26 29 31 31 30 31 32 29 27 26 28 32 33 33 31 29 28 26 24 22 20 18 17 19 19 19 17 14 11 8 9 13 16 17 18 18 19 19 19 19 19 19 19 19 19 19 19 18 18 18 17 16 14 13 13 13 13 13 14 15 15 14 13 12 11 10 9 8 7 5 4 3 3 4 3 2 1 0 2 3 4 5 5 5 7 8 9 8 8 7 7 8 10
32 32 29 26 29 31 31 35 36 32 32 31 30 28 28 33 35 33 32 32 31 29 27 24 21 19 18 17 17 17 18 16 14 11 10 13 16 18 19 19 20 20 20 20 20 20 20 20 20 20 21 20 20 19 17 16 14 14 13 13 13 14 16 16 15 14 13 12 10 9 8 7 6 6 5 4 3 3 3 2 1 2 3 4 5 5 6 6 7 8 8 7 7 7 8 9 11
30 30 28 28 32 32 32 35 32 29 33 34 35 33 29 33 35 35 36 36 34 32 29 26 23 21 18 15 15 16 17 17 16 14 12 13 16 18 19 19 20 20 21 21 21 21 22 22 21 22 22 21 20 19 17 16 15 15 15 15 16 16 15 14 14 14 13 12 10 9 9 8 7 6 5 4 4 3 3 3 3 4 5 5 5 6 6 7 8 9 7 6 5 6 8 10 12
30 29 30 32 33 33 32 31 29 31 34 37 41 37 29 32 38 40 40 38 36 34 31 28 25 22 18 15 14 15 15 17 17 16 15 15 16 18 19 20 21 21 22 21 21 22 22 22 22 22 22 21 20 19 18 16 16 16 16 17 17 15 14 14 14 14 14 13 11 11 10 9 8 7 6 5 5 4 3 3 4 5 6 6 6 7 7 7 8 8 7 5 4 6 9 10 10
29 30 33 34 33 33 32 30 32 34 36 41 43 37 32 34 39 42 42 39 38 37 32 29 26 24 20 17 15 14 15 16 17 18 17 16 16 19 20 21 23 23 23 22 22 22 23 23 23 23 22 21 20 19 19 18 17 18 18 18 16 15 15 15 15 15 14 14 13 12 11 10 9 8 7 6 5 4 4 4 5 6 7 7 7 7 7 8 9 8 6 5 5 6 8 9 8
26 29 32 33 34 35 33 33 35 36 39 44 42 37 36 32 34 41 43 42 41 38 33 30 28 26 23 20 17 16 16 16 17 18 19 18 18 19 20 22 23 23 22 22 22 23 23 23 23 23 22 21 21 20 20 20 19 19 18 17 16 16 16 15 15 15 15 15 15 14 13 11 10 9 8 6 5 4 4 5 5 7 8 8 8 8 8 8 9 8 6 5 6 7 8 8 7
28 28 29 33 37 38 38 39 38 39 43 45 41 39 37 26 27 40 45 43 43 39 34 31 29 28 26 23 19 17 17 17 17 17 18 19 19 19 21 22 22 22 21 22 22 22 22 22 22 22 21 21 22 22 22 22 21 20 18 17 17 16 16 16 16 16 16 16 16 15 14 13 12 10 9 8 6 5 4 5 6 7 8 9 9 9 8 9 9 9 7 6 6 6 7 8 7
31 29 29 35 40 40 42 43 41 43 45 43 39 38 38 28 25 38 45 43 42 39 35 32 31 30 28 25 21 20 19 18 17 17 18 19 20 20 21 21 21 22 22 21 21 21 20 21 21 21 21 21 21 21 22 22 21 20 19 18 18 17 17 16 16 16 17 17 16 16 15 13 13 12 11 10 8 6 4 4 5 7 8 9 10 9 9 9 10 9 8 7 5 5 7 7 6
32 30 32 36 39 41 44 44 44 44 42 40 37 38 42 31 21 33 43 41 40 40 37 34 33 31 30 27 24 22 21 19 19 19 19 20 21 21 20 20 21 21 21 21 21 21 21 21 21 21 21 20 20 20 20 20 19 19 19 19 18 17 17 17 17 17 18 18 17 16 15 14 14 13 13 12 10 7 5 4 5 6 8 9 10 10 9 9 10 9 8 8 5 5 6 6 5
33 32 35 36 36 38 40 41 42 40 37 38 38 39 41 25 15 28 39 38 40 42 39 36 34 32 30 29 26 24 22 22 21 21 20 20 20 20 19 20 21 21 21 22 22 22 22 22 22 22 22 21 21 20 20 20 19 19 20 19 18 18 17 17 18 18 18 18 18 17 16 16 15 15 15 14 12 9 7 5 5 6 7 9 10 10 10 10 10 9 8 8 6 5 6 6 5
33 33 34 34 34 35 36 37 37 34 34 38 40 37 34 22 15 24 28 30 37 40 38 36 36 33 31 29 28 26 25 24 23 22 22 22 21 20 21 22 22 21 22 23 24 24 23 23 23 23 23 23 22 22 22 21 21 21 21 20 19 18 17 17 18 18 19 19 18 18 18 17 17 17 17 15 13 12 10 7 6 6 7 9 10 11 11 11 11 10 9 8 6 6 7 6 5
32 31 32 33 34 34 33 32 32 31 35 41 38 30 25 23 19 19 19 26 35 38 38 37 37 35 32 31 30 29 27 24 24 23 23 22 22 22 23 23 24 23 23 24 24 24 23 23 23 23 23 23 23 23 22 22 22 22 22 21 20 19 18 17 17 17 18 19 19 18 18 18 18 18 17 16 14 13 12 10 8 7 7 9 10 11 11 11 12 11 10 8 7 6 7 7 6
32 32 34 35 32 31 30 31 32 33 37 39 30 19 18 21 16 14 19 28 33 36 38 38 37 35 34 33 32 30 28 25 25 24 23 23 23 24 25 25 26 26 25 24 23 22 23 23 23 23 23 23 23 23 23 23 23 23 22 21 21 20 19 18 17 17 18 19 19 19 18 19 19 18 18 16 14 14 14 12 10 9 9 9 10 11 12 12 12 12 11 9 7 6 6 6 6
34 35 34 30 28 29 31 34 35 33 34 34 24 14 16 19 15 14 19 26 31 36 38 37 36 36 36 35 33 31 29 27 25 24 24 23 23 23 24 26 27 27 26 24 22 22 23 24 24 23 23 22 22 22 22 22 22 22 21 21 20 19 19 19 18 18 19 19 19 19 19 19 19 19 18 16 15 15 14 14 12 11 11 11 11 11 12 13 13 13 12 11 8 6 6 6 5
39 37 32 29 32 35 36 37 36 33 32 30 22 15 15 18 17 16 20 25 29 35 38 37 36 37 38 36 33 32 30 28 26 25 24 24 24 24 24 24 25 26 26 25 24 23 23 23 23 23 22 21 21 22 22 22 21 21 20 20 19 19 19 19 19 19 19 18 19 19 19 19 19 20 19 17 16 15 15 14 14 13 12 12 12 12 12 13 14 14 13 12 9 7 6 6 5
43 38 34 36 38 37 37 37 34 31 29 24 19 15 15 17 17 18 21 24 27 33 37 38 38 40 38 36 34 33 31 30 28 25 25 25 24 23 22 22 22 23 24 25 25 25 24 23 23 23 23 23 23 23 22 22 21 21 20 20 20 20 20 19 19 19 19 18 18 19 19 19 20 20 19 18 17 16 16 15 15 14 14 14 14 14 13 13 14 14 14 13 11 8 7 7 6
45 41 42 44 41 38 37 36 33 31 27 21 18 14 13 15 18 21 24 27 29 33 36 37 39 40 39 37 36 34 33 32 28 26 25 24 21 19 19 19 20 21 22 24 26 26 26 25 24 24 24 24 24 23 22 21 21 21 21 21 20 20 20 20 20 20 19 19 19 20 19 20 20 20 20 19 18 17 17 16 16 15 15 16 16 15 15 14 15 15 15 14 12 9 8 8 7
47 45 48 48 43 40 39 37 35 32 27 22 18 15 13 14 18 22 25 29 32 35 36 37 39 41 40 39 38 37 35 32 28 27 26 22 19 17 17 19 21 22 22 24 26 26 26 26 26 25 25 24 24 23 22 21 21 21 20 20 20 20 20 20 20 20 20 20 21 21 21 21 21 20 20 20 19 18 18 17 17 16 16 17 18 18 17 16 16 16 16 15 13 11 9 9 9
47 45 47 45 41 40 41 39 36 32 26 22 18 15 14 14 18 22 25 29 32 36 39 39 40 42 42 40 39 38 36 33 30 29 27 24 22 20 19 20 22 24 23 23 25 26 26 26 26 27 27 26 25 24 22 21 21 20 20 20 20 20 20 20 20 20 20 21 22 22 23 23 23 22 21 21 20 20 19 19 18 17 18 18 19 20 19 18 17 17 17 16 15 13 11 10 10
Wind_Direction
91 92 90 93 96 97 98 100 104 106 111 115 115 121 132 139 137 139 137 131 128 127 128 129 130 130 128 125 123 122 122 122 119 118 120 122 120 121 123 123 128 132 131 129 127 122 118 116 116 114 111 118 118 115 112 111 115 117 114 112 114 112 110 111 111 111 109 108 106 107 107 107 106 106 108 110 113 117 121 124 126 129 133 134 131 128 128 128 126 125 124 123 122 122 122 120 118
94 94 92 93 95 97 99 103 103 90 102 115 115 120 128 136 137 142 140 133 130 130 133 132 133 133 132 128 125 124 123 122 120 124 126 124 122 123 125 123 123 126 127 127 124 121 120 118 116 115 118 124 121 114 111 111 114 113 110 110 113 110 109 110 110 109 108 107 107 107 106 104 104 104 106 109 114 118 122 125 127 130 132 134 132 130 129 129 127 127 126 125 124 124 123 122 120
96 96 93 94 94 98 100 103 103 84 97 114 111 116 121 129 133 137 137 133 130 130 134 133 135 136 134 130 126 125 122 120 119 123 125 124 125 127 128 125 122 121 123 124 123 121 118 115 112 115 122 124 119 112 110 111 110 108 106 109 111 109 109 109 109 109 108 108 107 107 105 104 103 103 105 109 115 118 120 124 128 129 129 131 132 131 130 128 127 128 128 128 128 127 126 124 122
94 95 94 94 94 96 96 98 102 93 101 110 108 113 116 121 124 126 129 130 129 130 133 135 137 134 133 129 124 123 122 120 118 121 122 120 121 124 127 124 122 119 119 121 121 120 116 113 114 118 121 119 114 109 110 109 106 105 106 111 112 109 109 110 110 109 108 107 107 105 104 105 104 105 107 111 115 117 119 122 125 126 127 129 131 132 131 129 128 130 131 132 132 131 130 129 125
95 96 97 96 95 92 93 97 99 97 104 111 113 117 119 122 124 125 127 129 131 132 133 137 135 132 130 125 123 123 125 126 121 122 123 120 117 119 123 124 122 119 122 122 120 120 118 116 118 120 117 114 111 108 109 108 106 106 110 114 112 110 110 111 111 108 106 106 105 104 104 106 108 110 111 113 114 115 116 117 119 122 126 129 130 130 132 132 131 134 136 137 138 137 134 131 128
101 101 104 101 98 94 94 98 98 99 106 116 120 125 129 129 130 129 132 134 136 136 136 139 137 134 132 127 124 121 124 129 122 120 120 119 117 116 120 121 121 121 123 120 117 118 117 118 118 116 113 113 113 109 108 108 107 109 114 114 112 111 111 111 108 105 104 103 103 102 104 107 110 111 112 112 112 113 113 111 111 113 119 126 130 130 132 134 137 140 141 141 143 144 141 137 137
109 110 114 110 102 94 90 90 95 105 113 123 128 132 137 138 137 136 138 139 140 141 141 142 140 139 140 134 128 121 123 128 121 112 109 114 116 114 113 112 114 119 121 113 108 111 114 117 117 113 112 114 114 110 109 108 109 113 115 112 111 111 110 109 106 104 103 103 102 102 105 107 108 109 110 111 112 112 110 108 107 109 112 116 123 130 134 137 140 143 145 147 149 151 148 148 150
117 122 126 118 103 92 88 90 95 109 121 133 138 140 144 147 146 144 144 144 144 144 144 147 146 147 148 142 137 133 129 128 119 100 94 103 109 110 102 95 103 113 117 108 103 111 115 117 115 112 111 113 112 109 107 109 112 115 113 110 110 110 109 107 105 104 103 103 102 104 106 105 106 107 109 112 113 111 107 105 106 109 110 109 113 120 131 138 142 143 146 151 156 159 156 158 161
127 133 137 123 105 95 92 95 100 111 128 141 148 150 151 154 155 153 151 149 148 145 146 151 152 154 153 149 148 142 135 130 124 110 97 96 102 103 96 86 89 104 115 112 111 120 124 121 115 113 114 114 112 110 108 112 115 114 111 110 111 111 109 108 106 104 103 103 103 104 105 104 105 107 110 113 115 113 107 103 102 106 107 107 108 112 121 129 137 141 145 151 158 165 166 169 173
142 146 148 134 112 103 105 108 116 125 139 154 165 166 162 166 168 166 162 161 159 152 150 152 159 159 157 155 155 151 139 132 130 124 114 109 101 96 93 89 87 94 108 116 120 130 133 126 119 117 120 121 120 116 114 116 115 112 110 111 113 113 111 108 106 104 103 103 104 104 103 103 105 107 111 113 116 118 112 104 101 106 109 109 108 111 115 120 127 132 138 145 154 162 170 175 183
152 157 159 152 126 116 135 141 150 157 159 168 178 181 177 176 181 182 175 173 167 158 152 148 158 161 159 157 157 157 146 139 138 131 123 118 103 94 92 91 95 96 103 117 127 137 138 131 125 123 126 127 124 120 119 118 114 112 111 114 117 115 112 109 106 104 103 103 104 102 102 103 105 108 108 110 114 117 114 106 107 114 120 120 116 113 114 117 120 121 127 135 144 149 155 165 176
154 163 168 166 140 129 152 164 175 179 175 177 183 185 183 179 182 188 181 175 169 160 154 147 149 150 155 161 163 166 156 150 148 137 128 117 100 95 93 90 96 105 109 114 128 141 142 136 132 131 133 132 127 123 120 117 114 114 116 120 119 116 112 109 106 104 104 103 102 101 101 104 106 106 104 105 107 108 107 106 112 118 124 128 126 121 118 119 119 120 124 130 136 136 142 149 160
156 169 175 171 151 139 153 171 181 185 187 188 191 189 182 177 179 185 182 175 169 163 160 157 155 149 149 153 165 182 171 162 158 147 139 124 101 90 91 92 96 110 115 113 127 142 142 139 137 137 138 134 128 123 119 117 118 120 122 123 120 115 112 108 106 104 103 102 101 102 102 103 103 102 100 99 98 99 101 103 107 113 120 125 129 129 127 124 122 122 124 126 121 116 118 118 128
161 171 178 178 164 149 148 168 180 187 198 197 198 195 186 183 179 180 178 172 169 166 169 170 169 163 160 157 156 177 189 179 174 163 152 137 115 92 90 97 104 114 119 122 131 139 140 140 139 139 138 133 127 123 121 123 124 126 126 123 119 115 111 108 106 104 104 104 104 103 103 102 101 99 97 95 94 96 98 101 104 108 114 119 124 124 120 116 112 112 111 106 99 95 93 93 94
166 172 182 188 175 154 151 169 178 189 205 203 203 198 192 191 184 180 177 173 177 178 179 180 178 176 175 173 161 155 175 200 197 182 164 146 129 112 104 105 112 121 128 131 134 139 142 146 144 142 140 134 130 127 128 130 130 129 126 122 118 115 112 109 107 107 107 106 105 104 103 101 99 97 95 95 95 96 99 101 103 105 108 110 111 110 107 104 103 101 96 90 86 84 85 88 90
172 175 185 192 183 158 158 173 179 191 205 202 201 195 190 194 186 182 182 178 184 184 185 185 180 182 186 189 176 163 161 176 208 198 176 155 140 133 128 123 125 133 139 137 136 141 147 152 151 148 144 137 135 134 133 134 133 130 126 123 119 116 113 111 110 110 109 107 105 103 101 100 99 98 98 97 97 97 97 98 98 100 101 102 102 101 99 98 95 92 88 86 83 81 81 82 84
179 180 187 194 190 172 170 181 186 194 204 203 201 194 189 194 186 184 188 185 185 184 184 183 172 172 180 193 193 179 165 155 183 204 186 167 153 147 144 142 144 147 147 143 141 145 150 155 155 151 146 141 139 138 136 135 133 130 127 123 120 117 115 113 113 112 111 108 106 104 102 101 101 101 101 101 100 99 97 96 96 97 98 98 98 97 96 94 91 89 87 84 81 79 79 79 79
186 184 189 194 194 186 183 188 193 196 202 204 204 201 194 193 188 183 187 184 181 183 183 178 169 169 170 182 193 185 177 162 164 193 194 179 167 159 150 151 154 154 155 151 148 147 152 156 154 151 147 144 143 140 137 135 133 130 127 124 122 119 117 116 116 115 113 111 110 109 106 104 104 104 104 103 102 101 99 98 97 97 97 97 97 96 95 93 90 88 87 84 81 80 79 78 79
191 188 189 194 196 193 191 193 197 199 202 204 205 209 205 198 191 180 183 182 174 174 176 173 170 170 164 164 173 174 186 184 176 187 199 193 181 169 155 155 159 160 161 158 153 150 154 157 153 151 148 147 145 140 138 136 133 130 127 126 123 121 120 119 119 117 117 116 115 114 111 108 106 106 105 104 103 102 101 99 98 98 98 97 97 97 95 94 93 91 88 86 83 79 77 75 73
193 190 188 192 197 195 194 198 201 202 205 205 205 211 213 210 199 182 181 180 171 169 169 167 165 165 161 157 157 161 183 206 206 200 203 203 192 177 161 156 158 163 164 161 157 152 154 156 152 150 151 149 145 142 140 138 135 132 130 128 126 125 124 123 122 121 121 121 120 118 116 113 110 108 107 105 105 103 102 101 100 99 98 97 96 96 96 95 95 94 91 88 85 82 78 74 69
193 193 191 193 199 198 198 201 203 208 211 211 209 209 210 212 206 194 186 177 173 174 170 164 158 158 161 160 156 154 167 199 216 214 210 204 194 180 164 153 152 162 168 164 160 156 156 156 153 152 153 151 148 145 143 141 137 135 133 132 129 128 127 127 126 125 125 125 123 121 120 117 114 112 110 108 106 104 103 102 101 99 98 96 94 93 93 93 91 90 89 87 84 80 77 73 66
195 194 193 195 202 202 201 203 206 211 212 215 216 214 213 209 206 200 192 183 180 186 183 170 159 155 159 162 161 153 148 162 192 208 209 198 188 179 165 155 153 163 171 168 163 160 158 156 154 154 155 153 150 147 145 144 141 138 137 135 132 131 131 130 129 129 129 128 126 124 123 121 119 116 114 111 109 106 105 104 102 100 98 95 93 91 89 88 87 85 84 80 76 72 68 65 59
198 196 193 198 206 205 202 204 208 212 211 216 222 226 226 216 205 198 194 195 198 198 190 175 161 153 152 154 158 155 148 149 166 187 194 188 182 176 169 162 158 163 169 170 167 163 161 158 157 156 156 154 152 150 148 147 144 142 140 137 135 135 134 133 133 133 133 131 129 127 127 125 122 120 117 114 111 109 107 105 104 102 99 95 90 85 82 79 78 77 75 72 69 66 62 57 52
202 198 193 199 208 209 204 204 210 212 211 217 223 228 235 221 209 204 197 203 213 205 191 174 159 145 147 148 150 154 156 153 158 176 183 179 177 175 175 168 160 160 167 173 171 166 164 161 160 159 158 156 154 153 151 150 148 146 144 141 140 139 139 138 137 137 137 136 134 132 130 126 124 122 120 117 114 113 110 108 105 102 98 93 89 84 79 75 72 72 70 69 67 62 59 55 49
205 199 194 199 208 210 202 204 213 213 211 217 221 224 236 228 213 208 199 199 206 204 193 177 160 143 140 144 146 148 155 165 163 172 179 176 174 174 177 172 163 162 168 174 174 168 166 163 163 162 159 158 158 156 154 153 151 149 147 145 143 143 143 142 142 142 142 141 139 137 133 128 124 123 121 118 116 113 111 108 104 100 95 92 90 87 81 74 69 66 65 62 61 57 52 49 44
209 203 196 197 204 204 197 203 213 214 211 210 217 223 229 225 211 202 196 198 199 194 189 179 165 147 138 139 146 145 141 156 174 177 180 177 175 173 174 173 168 167 168 174 175 169 166 165 165 164 162 161 161 160 158 156 154 152 151 148 146 147 147 147 147 147 146 144 143 140 135 131 126 124 121 119 116 113 110 106 103 97 92 88 84 80 76 69 60 54 52 46 43 40 31 25 26
212 209 200 196 199 197 194 202 209 210 206 201 218 233 225 217 208 200 190 189 192 188 187 180 167 152 139 134 139 138 131 106 117 184 184 180 177 172 171 174 172 169 170 174 176 172 168 166 166 167 166 165 165 164 162 160 158 157 155 152 150 151 151 152 152 150 149 146 144 142 138 133 129 125 123 120 119 115 110 104 99 94 89 83 76 73 69 65 55 41 38 31 24 19 8 4 4
214 214 205 197 197 197 195 201 205 201 199 200 224 236 222 214 210 204 190 176 170 165 169 176 170 158 143 131 128 126 119 97 80 177 189 184 179 175 174 174 174 173 172 174 176 174 170 167 168 170 171 169 169 168 166 165 164 163 161 158 155 155 155 155 155 153 151 148 145 142 139 136 132 128 124 122 120 114 107 100 94 89 84 78 71 67 65 65 58 40 33 27 21 13 6 2 358
215 217 210 202 199 200 199 201 201 200 206 210 216 223 216 216 217 208 191 175 160 153 150 153 160 162 151 134 126 122 116 107 103 162 188 187 181 180 179 177 177 177 174 174 176 175 170 169 170 173 174 174 175 175 173 172 170 169 168 165 162 160 159 159 157 155 153 151 147 143 140 138 134 129 126 123 117 110 103 95 89 82 76 69 60 49 49 56 61 57 57 55 47 35 25 17 12
219 219 215 210 203 202 205 203 199 203 216 214 206 213 207 210 222 210 187 172 157 150 144 141 143 152 154 140 128 125 124 128 137 164 183 186 183 181 182 182 181 177 176 176 176 175 172 170 172 176 177 178 180 181 180 178 176 176 174 170 167 164 163 161 160 158 155 152 147 143 140 137 133 129 126 121 115 108 99 92 83 75 68 61 52 40 41 61 70 74 72 66 55 42 31 20 16
221 220 218 217 209 206 209 207 203 207 216 208 199 209 205 206 216 207 188 174 158 150 143 136 136 135 143 141 133 129 127 137 154 171 183 185 184 180 180 185 183 178 178 180 178 176 173 172 174 177 180 182 184 186 185 183 181 181 178 174 171 167 165 163 161 160 156 153 147 142 139 136 133 129 125 121 115 107 97 87 76 68 65 60 56 57 66 73 74 71 64 56 45 33 23 14 11
223 223 221 221 219 214 213 212 211 213 215 204 194 203 207 209 208 201 187 175 162 154 149 141 138 135 134 134 134 134 127 130 156 173 182 183 182 181 181 182 181 181 182 180 178 177 175 175 176 178 182 185 187 189 188 186 185 185 182 179 175 172 168 166 163 161 158 153 147 143 139 137 134 131 126 121 114 106 94 81 74 70 68 68 68 70 72 72 68 58 50 44 35 27 19 11 7
225 225 222 222 223 221 219 218 216 217 217 207 194 197 206 211 205 197 184 176 165 158 156 149 144 139 138 137 131 137 132 126 149 170 178 181 183 184 183 182 180 184 184 180 179 180 179 178 178 179 183 186 188 190 190 189 188 187 185 184 179 175 171 168 166 163 160 155 149 146 142 140 137 132 127 119 111 103 93 87 84 80 77 77 75 72 70 64 53 42 37 33 29 24 18 11 6
226 225 223 223 223 220 221 223 220 220 219 209 194 195 204 211 204 196 185 178 170 166 164 158 153 147 145 144 136 136 136 134 145 167 175 180 187 188 185 184 183 184 184 180 182 183 181 181 181 182 184 185 187 191 192 192 190 189 189 187 181 176 173 171 169 165 162 158 154 150 147 144 140 134 127 120 113 105 100 100 98 94 92 86 78 71 60 49 38 31 27 28 25 21 18 14 8
229 228 227 227 227 221 221 227 225 221 220 209 193 193 201 208 206 200 190 182 177 175 172 166 161 156 151 145 141 138 137 146 155 169 174 179 189 193 189 186 185 186 183 181 185 185 183 183 183 184 185 185 187 190 192 193 192 191 191 187 182 178 174 172 171 168 165 161 158 155 152 148 143 138 133 126 119 114 114 115 112 109 101 91 80 58 44 33 26 22 20 23 22 16 14 14 12
230 230 230 229 231 225 222 229 230 224 222 213 196 194 199 204 205 203 195 186 182 177 172 167 164 162 156 148 145 143 147 160 170 175 174 178 187 192 191 188 187 187 184 183 186 186 185 184 183 184 185 184 186 189 190 192 193 193 191 187 182 177 174 172 172 171 169 166 162 159 156 152 147 142 137 131 125 123 126 126 123 117 104 93 73 39 28 19 18 16 13 16 16 10 7 9 11
231 231 231 230 231 228 224 231 234 229 226 219 205 199 200 203 204 204 199 191 184 177 171 169 169 169 165 157 151 149 158 170 182 183 176 178 185 187 188 190 189 187 184 183 184 186 186 183 182 183 182 181 184 187 189 191 192 191 189 185 180 176 174 174 174 173 173 170 167 163 160 156 151 145 137 131 126 127 130 128 123 114 105 89 31 358 0 8 13 12 10 9 5 1 360 2 10
231 231 230 229 230 230 229 233 235 234 233 226 215 205 201 203 204 203 201 194 186 180 177 176 175 177 174 167 159 155 162 171 178 189 181 180 183 183 183 187 190 187 185 184 184 185 183 180 180 178 177 179 183 187 189 191 191 189 186 182 180 178 177 178 177 177 178 176 172 169 164 161 155 146 137 131 128 130 131 126 118 108 101 55 347 334 344 359 1 3 5 0 353 351 353 358 7
228 228 228 226 226 228 231 236 236 235 236 232 224 213 204 206 205 201 202 196 190 187 183 184 183 184 183 175 166 160 163 169 172 182 183 180 182 182 181 184 188 187 184 183 183 184 181 179 177 174 176 181 184 187 190 189 188 185 183 183 182 181 181 183 183 183 183 181 178 173 169 165 159 151 144 140 136 139 136 126 112 100 1 331 325 320 332 346 349 353 355 349 342 342 347 356 2
222 223 225 221 223 226 229 236 235 232 235 235 232 222 208 208 207 202 202 197 194 193 189 189 188 187 193 190 178 168 165 166 168 174 180 180 180 180 182 184 185 185 185 183 182 182 182 180 177 175 179 183 185 187 188 186 184 182 183 185 185 185 189 190 190 190 188 186 182 176 172 170 167 162 162 160 155 158 154 140 122 305 307 316 313 313 324 335 342 346 344 340 336 335 342 351 354
218 220 219 216 221 224 223 230 231 229 235 237 238 231 214 209 208 204 204 201 197 196 195 193 190 190 200 203 191 176 167 165 165 167 175 180 180 180 182 185 184 185 187 185 182 182 184 183 180 180 182 184 185 186 185 182 181 183 186 189 192 194 195 195 195 195 194 193 188 180 178 180 179 177 179 183 182 182 182 187 236 283 298 308 309 311 317 326 335 337 334 333 331 331 340 347 348
218 218 217 217 222 222 220 226 228 226 232 237 239 235 218 208 209 208 209 207 201 199 199 195 193 195 198 198 196 187 175 168 165 163 170 178 180 181 182 185 186 187 188 188 185 185 186 185 183 184 185 184 185 184 180 180 182 185 189 193 198 198 197 198 200 201 200 198 195 191 191 191 190 190 194 200 202 205 210 219 250 275 290 304 309 310 310 317 327 328 325 327 328 333 340 342 345
217 215 215 218 220 221 219 221 225 224 226 232 237 235 221 210 210 213 214 210 204 203 201 196 193 194 191 189 197 197 186 175 168 164 169 176 180 184 183 183 187 189 189 189 188 188 188 187 187 188 188 186 185 181 178 180 184 188 193 198 199 197 198 203 206 207 205 203 200 201 203 203 200 199 202 208 212 220 231 240 259 273 285 299 306 307 306 311 320 321 316 317 327 337 339 340 347
219 215 214 215 217 220 220 217 221 224 223 229 236 236 229 217 211 215 217 212 209 208 205 198 193 190 187 189 195 199 198 188 176 170 170 175 183 186 185 185 188 191 190 189 190 191 190 189 190 191 190 187 184 180 179 182 186 191 197 200 199 196 199 204 209 211 210 208 206 208 209 209 208 206 206 212 218 229 249 259 265 273 282 293 302 305 304 306 313 314 307 307 326 339 341 343 351
220 218 215 213 216 219 219 218 220 223 224 229 234 236 236 225 210 215 220 216 213 212 208 201 193 189 188 190 193 196 201 198 188 179 173 176 185 188 189 189 191 192 192 191 193 194 193 192 192 192 190 187 184 182 182 186 190 194 198 200 198 196 197 203 209 214 215 213 212 214 212 209 209 209 209 216 224 236 258 269 270 272 278 288 296 301 301 301 307 307 298 302 327 346 350 350 355
220 220 215 212 216 216 217 219 218 220 226 230 231 232 239 232 206 212 221 219 216 214 211 205 196 191 189 190 193 196 200 200 196 191 182 181 186 190 193 193 193 193 194 195 196 196 195 194 193 193 192 190 186 185 186 189 192 195 198 201 201 198 195 198 205 213 219 219 217 218 217 213 212 212 210 217 230 243 265 278 276 273 276 283 289 296 298 296 302 303 295 301 328 356 1 355 353
219 216 212 213 216 216 218 220 218 221 229 234 231 229 239 237 204 209 222 221 218 214 211 208 202 195 191 190 195 198 198 197 197 197 191 188 188 190 192 194 195 196 196 197 196 195 195 195 195 195 196 195 192 191 192 194 195 197 200 204 205 201 197 197 204 211 218 222 222 222 222 220 218 218 216 220 230 244 266 286 289 280 278 281 284 289 293 292 297 298 293 299 325 1 6 1 355
221 214 213 216 217 218 221 223 223 227 236 240 233 227 237 237 195 205 222 221 218 215 211 211 206 199 193 191 198 201 197 196 198 199 197 195 193 190 190 194 198 198 198 198 197 196 195 195 196 197 199 200 199 199 200 201 201 202 205 209 210 207 202 200 206 213 218 223 226 227 226 224 223 223 223 226 231 240 256 281 298 293 284 282 282 286 288 288 292 292 288 294 313 350 2 5 2
226 219 218 220 220 222 225 226 229 237 242 243 237 229 236 239 187 204 222 219 215 214 211 211 208 203 197 193 200 204 200 197 199 200 200 200 197 192 192 195 196 198 200 201 201 200 199 198 199 200 201 202 203 203 205 206 207 209 212 214 214 213 209 206 209 215 220 223 226 228 229 228 226 226 229 232 234 236 243 262 291 302 291 284 284 286 285 285 287 287 282 287 301 328 346 357 4
229 225 225 226 226 227 229 231 235 242 245 245 243 236 240 250 220 213 220 216 214 213 210 210 208 204 199 195 200 204 202 199 198 200 202 200 196 193 194 195 193 197 202 204 204 203 204 203 203 204 204 205 206 205 206 207 209 212 215 217 217 217 215 214 213 218 224 228 228 229 230 231 230 229 232 237 237 234 237 250 274 293 293 290 288 285 284 283 285 284 278 280 290 313 331 341 349
232 230 230 231 232 232 234 237 241 245 244 245 248 243 245 254 237 214 206 207 211 210 207 209 208 205 201 198 201 203 202 201 199 201 203 202 198 194 195 195 193 196 202 206 207 206 206 206 206 207 208 209 209 208 208 209 210 212 215 218 220 221 220 219 219 221 226 231 233 232 231 232 233 233 235 240 239 235 238 246 262 281 291 293 291 286 283 281 283 283 277 275 280 299 320 327 329
229 227 229 229 231 234 237 239 240 241 242 247 253 252 249 251 234 197 190 197 206 207 206 208 208 205 204 203 203 204 202 202 201 202 204 205 204 199 197 196 194 196 201 205 208 208 208 208 208 209 210 211 212 212 212 211 212 213 216 218 220 222 222 223 223 224 226 230 234 235 233 232 234 236 238 241 240 238 241 245 255 272 284 291 290 286 282 279 280 281 277 273 273 286 309 316 316
229 227 229 229 230 230 231 234 236 238 242 248 251 238 236 242 226 198 191 191 199 203 202 206 208 207 207 207 206 205 203 203 204 204 204 205 207 207 204 200 198 200 202 203 205 208 210 210 210 210 211 212 214 215 216 216 217 218 220 222 224 225 225 225 226 226 227 229 232 235 236 234 235 237 239 240 240 240 242 244 250 261 274 285 289 286 282 278 278 279 276 272 269 276 299 308 308
228 226 227 227 226 224 225 229 231 232 237 242 242 226 223 229 216 198 191 187 193 200 200 204 208 210 211 209 207 206 205 206 207 206 206 206 208 211 211 208 204 203 204 204 205 208 212 212 211 209 208 210 213 216 217 219 222 224 226 229 230 230 229 228 229 231 232 232 234 236 237 237 237 237 239 239 239 240 242 244 248 254 264 277 285 286 284 279 276 277 276 272 267 269 287 297 299
225 223 222 224 224 223 225 228 229 231 234 237 241 231 220 220 205 188 186 185 190 198 201 204 207 211 213 211 209 207 206 208 209 208 209 210 211 212 215 217 215 212 210 207 207 209 210 211 213 211 209 209 211 214 218 222 226 229 231 234 236 238 238 237 237 238 239 239 239 239 239 239 239 239 240 239 237 239 242 245 248 251 258 270 281 284 283 278 275 275 275 272 267 266 278 288 290
224 220 220 223 222 222 225 227 228 231 232 234 240 232 219 215 202 191 189 186 188 195 201 203 206 211 213 212 210 208 209 209 208 209 213 214 213 213 217 220 221 222 220 217 214 212 210 210 213 215 216 215 215 216 220 225 229 232 234 237 240 243 246 247 247 247 246 245 244 244 244 243 242 242 242 241 239 239 241 245 249 252 255 265 275 280 280 278 274 273 273 271 266 263 272 283 285
223 221 223 225 222 221 223 224 224 226 224 224 227 224 224 216 198 192 193 190 190 194 198 201 204 208 211 212 211 210 210 210 208 211 216 214 209 211 219 223 222 222 224 225 223 218 216 214 214 216 220 221 221 222 224 227 231 234 237 239 241 244 246 249 251 252 252 251 250 249 248 247 246 245 244 243 242 241 242 246 250 253 254 259 267 274 277 277 273 271 270 269 265 261 266 279 284
225 226 229 231 228 226 227 226 225 226 224 222 222 221 226 215 194 191 194 194 195 194 196 201 203 206 209 212 213 213 212 210 209 212 214 210 205 208 220 228 228 226 224 227 229 226 224 223 221 222 222 223 225 225 226 229 233 235 238 240 240 242 245 247 249 251 252 252 252 251 250 249 248 247 246 245 243 242 244 248 251 254 255 256 261 267 273 275 272 268 268 266 263 258 260 272 281